SL-19 DEB, 23490

Orbit data source: Space-Track

SL-19 DEB, 23490 is space debris in LEO originally from a launch on Mon, 26 Dec 1994 UTC launched from the Tyuratam Missile And Space Complex (TTMTR). Debris objects in space refer to the collection of defunct objects orbiting the Earth. Examples of debris include non-operational satellites, rocket bodies, and fragments generated from explosions, collisions, or faulty payload assembly.

Loading next visibility...
Identifier
23490, 1994-085N
Orbit
LEO
Country
Flag of CISCIS
Related business
Manufacturer
Unknown
Mission
Spacecraft
Bus & Motor
Unknown
Mass
Unknown
Launch date (UTC)
1994-12-26 (31 years ago)
Launch vehicle
Unknown
Launch site
Tyuratam Missile And Space Complex (TTMTR)
Object type
Payload
Rocket body
Debris
Shape & HBR
Unknown shape, 0.2 m
Radar Cross Section
Medium (>0.1 m² and <1 m²)

Expand to show TLE details & history
Last TLE update: 1 day ago

TLE from 1 day ago
0 SL-19 DEB
1 23490U 94085N   26012.57192009 -.00000051  00000-0 -28200-3 0  9991
2 23490  64.8268 112.5198 0126415  30.6410  66.3973 11.20507391270376
Epoch: 2026-01-12T13:43Z
TLE epoch observation values (Epoch: 2026-01-12T13:43:33.895Z)
Latitude
63.65982°
Longitude
-96.32864°
Altitude
2,026.115 km
Speed
6.911 km/s
True Right ascension
14h 46m 31s
True Declination
63° 32' 37"
Sunlit
Object was in daylight at epoch
Visualization orbit readout
Latitude
Unknown
Longitude
Unknown
Altitude
Unknown
Speed
Unknown
Apparent Right ascension
Unknown
Apparent Declination
Unknown
Sunlit
N/A
Visualization observer readout
Local Sidereal Time
16:51:39
Azimuth
Unknown
Elevation
Unknown
Doppler factor
Unknown
Orbital elements
Apogee altitude
2,163.083 km
Perigee altitude
1,949.831 km
Semi-major axis
8,434.594 km
Eccentricity
0.01264
Inclination
64.8268°
RAAN
112.5198°
Arg. of periapsis
30.641°
True anomaly
67.73305°
Mean anomaly
66.3973°
Eccentric anomaly
67.06434°
Mean motion
2.80186 °/min
Orbital period
128.49 mins
BSTAR
-0.000282
Loading maneuver chart data...
Computing Atmospheric mass density...
Loading historical data...
Loading historical data...
Loading historical data...
Loading historical data...
Loading historical data...
Loading historical data...
Loading historical data...

Documentation

Showing up to 5 results
|